Latest Coastal Weather Observations for Melbourne

IDV60701

Issued at 3:35 pm EST Saturday 23 August 2014 (issued every 10 minutes, with the page automatically refreshed every 10 minutes)

About coastal observations | Map of coastal stations | Coastal observations for VIC | Marine services | Other Formats
Station Details ID: 086071 Name: MELBOURNE REGIONAL OFFICE Lat: -37.81 Lon: 144.97 Height: 31.15 m
Data from the previous 72 hours. | See also: Recent months at Melbourne
Date/Time
EST
Temp

°C
Wind Pressure Rain
since 9am
mm
Weather Cloud Vis
km
Sea
Height
m
Swell
Dir
 
Speed
knots
Gust
knots
hPa Trend Height
m
Period
s
Dir
23/03:30pm 18.8 - - - 1024.3 - 0.0 - - - - - - -
23/03:00pm 19.2 - - - 1024.7 - 0.0 - - - - - - -
23/02:30pm 19.8 - - - 1024.8 - 0.0 - - - - - - -
23/02:00pm 19.1 - - - 1025.1 - 0.0 - - - - - - -
23/01:30pm 19.5 - - - 1025.4 - 0.0 - - - - - - -
23/01:00pm 18.8 - - - 1025.8 - 0.0 - - - - - - -
23/12:30pm 18.6 - - - 1026.4 - 0.0 - - - - - - -
23/12:00pm 18.1 - - - 1027.0 - 0.0 - - - - - - -
23/11:30am 18.4 - - - 1027.4 - 0.0 - - - - - - -
23/11:00am 17.1 - - - 1028.1 - 0.0 - - - - - - -
23/10:30am 16.3 - - - 1028.3 - 0.0 - - - - - - -
23/10:00am 14.4 - - - 1028.5 - 0.0 - - - - - - -
23/09:30am 12.8 - - - 1028.8 - 0.0 - - - - - - -
23/09:00am 11.0 - - - 1029.1 - 0.0 - - - - - - -
23/08:30am 9.8 - - - 1029.1 - 0.0 - - - - - - -
23/08:00am 8.5 - - - 1028.9 - 0.0 - - - - - - -
23/07:30am 7.7 - - - 1028.6 - 0.0 - - - - - - -
23/07:00am 7.4 - - - 1028.4 - 0.0 - - - - - - -
23/06:30am 7.7 - - - 1028.1 - 0.0 - - - - - - -
23/06:00am 7.9 - - - 1028.0 - 0.0 - - - - - - -
23/05:30am 8.0 - - - 1027.9 - 0.0 - - - - - - -
23/05:00am 8.1 - - - 1027.6 - 0.0 - - - - - - -
23/04:30am 8.2 - - - 1027.4 - 0.0 - - - - - - -
23/04:00am 8.4 - - - 1027.5 - 0.0 - - - - - - -
23/03:30am 8.4 - - - 1027.5 - 0.0 - - - - - - -
23/03:00am 8.9 - - - 1027.7 - 0.0 - - - - - - -
23/02:30am 9.3 - - - 1027.9 - 0.0 - - - - - - -
23/02:00am 9.3 - - - 1028.1 - 0.0 - - - - - - -
23/01:30am 9.2 - - - 1028.1 - 0.0 - - - - - - -
23/01:00am 9.8 - - - 1028.1 - 0.0 - - - - - - -
23/12:30am 10.2 - - - 1028.1 - 0.0 - - - - - - -
23/12:00am 10.8 - - - 1028.2 - 0.0 - - - - - - -
 
Date/Time
EST
Temp

°C
Wind Pressure Rain
since 9am
mm
Weather Cloud Vis
km
Sea
Height
m
Swell
Dir
 
Speed
knots
Gust
knots
hPa Trend Height
m
Period
s
Dir
22/11:30pm 11.3 - - - 1028.3 - 0.0 - - - - - - -
22/11:00pm 11.8 - - - 1028.4 - 0.0 - - - - - - -
22/10:30pm 12.4 - - - 1028.4 - 0.0 - - - - - - -
22/10:00pm 13.4 - - - 1028.4 - 0.0 - - - - - - -
22/09:30pm 13.3 - - - 1028.5 - 0.0 - - - - - - -
22/09:00pm 14.3 - - - 1028.8 - 0.0 - - - - - - -
22/08:30pm 14.6 - - - 1028.6 - 0.0 - - - - - - -
22/08:00pm 15.3 - - - 1028.5 - 0.0 - - - - - - -
22/07:30pm 16.2 - - - 1028.3 - 0.0 - - - - - - -
22/07:00pm 16.9 - - - 1028.2 - 0.0 - - - - - - -
22/06:30pm 17.2 - - - 1027.9 - 0.0 - - - - - - -
22/06:00pm 17.5 - - - 1027.7 - 0.0 - - - - - - -
22/05:30pm 18.2 - - - 1027.6 - 0.0 - - - - - - -
22/05:00pm 18.7 - - - 1027.5 - 0.0 - - - - - - -
22/04:30pm 18.5 - - - 1027.4 - 0.0 - - - - - - -
22/04:00pm 19.8 - - - 1027.2 - 0.0 - - - - - - -
22/03:30pm 19.6 - - - 1027.4 - 0.0 - - - - - - -
22/03:00pm 19.2 - - - 1027.7 F 0.0 Fine Partly cloudy 30 - - - -
22/02:30pm 20.6 - - - 1027.9 - 0.0 - - - - - - -
22/02:00pm 19.2 - - - 1028.1 - 0.0 - - - - - - -
22/01:30pm 19.5 - - - 1028.5 - 0.0 - - - - - - -
22/01:00pm 18.7 - - - 1028.9 - 0.0 - - - - - - -
22/12:30pm 18.4 - - - 1029.3 - 0.0 - - - - - - -
22/12:00pm 18.2 - - - 1029.9 F 0.0 Fine Mostly clear 30 - - - -
22/11:30am 17.4 - - - 1030.3 - 0.0 - - - - - - -
22/11:00am 17.0 - - - 1030.7 - 0.0 - - - - - - -
22/10:30am 15.2 - - - 1030.9 - 0.0 - - - - - - -
22/10:00am 13.0 - - - 1031.1 - 0.0 - - - - - - -
22/09:30am 11.6 - - - 1031.2 - 0.0 - - - - - - -
22/09:00am 10.4 - - - 1031.4 R 0.0 Haze Partly cloudy 30 - - - -
22/08:30am 9.3 - - - 1031.3 - 0.0 - - - - - - -
22/08:00am 8.8 - - - 1031.1 - 0.0 - - - - - - -
22/07:30am 8.1 - - - 1030.9 - 0.0 - - - - - - -
22/07:00am 7.5 - - - 1030.5 - 0.0 - - - - - - -
22/06:30am 7.4 - - - 1030.3 - 0.0 - - - - - - -
22/06:00am 7.6 - - - 1030.2 - 0.0 - - - - - - -
22/05:30am 8.0 - - - 1029.9 - 0.0 - - - - - - -
22/05:00am 8.1 - - - 1029.7 - 0.0 - - - - - - -
22/04:30am 8.3 - - - 1029.5 - 0.0 - - - - - - -
22/04:00am 8.7 - - - 1029.4 - 0.0 - - - - - - -
22/03:30am 8.8 - - - 1029.4 - 0.0 - - - - - - -
22/03:00am 8.3 - - - 1029.4 - 0.0 - - - - - - -
22/02:30am 9.0 - - - 1029.6 - 0.0 - - - - - - -
22/02:00am 9.1 - - - 1029.6 - 0.0 - - - - - - -
22/01:30am 9.4 - - - 1029.6 - 0.0 - - - - - - -
22/01:00am 9.1 - - - 1029.5 - 0.0 - - - - - - -
22/12:30am 10.1 - - - 1029.5 - 0.0 - - - - - - -
22/12:00am 10.2 - - - 1029.7 - 0.0 - - - - - - -
 
Date/Time
EST
Temp

°C
Wind Pressure Rain
since 9am
mm
Weather Cloud Vis
km
Sea
Height
m
Swell
Dir
 
Speed
knots
Gust
knots
hPa Trend Height
m
Period
s
Dir
21/11:30pm 10.1 - - - 1029.5 - 0.0 - - - - - - -
21/11:00pm 11.1 - - - 1029.5 - 0.0 - - - - - - -
21/10:30pm 11.8 - - - 1029.4 - 0.0 - - - - - - -
21/10:00pm 12.4 - - - 1029.4 - 0.0 - - - - - - -
21/09:30pm 12.5 - - - 1029.4 - 0.0 - - - - - - -
21/09:00pm 13.5 - - - 1029.3 - 0.0 - - - - - - -
21/08:30pm 14.2 - - - 1028.9 - 0.0 - - - - - - -
21/08:00pm 14.4 - - - 1028.7 - 0.0 - - - - - - -
21/07:30pm 14.3 - - - 1028.5 - 0.0 - - - - - - -
21/07:00pm 15.1 - - - 1028.2 - 0.0 - - - - - - -
21/06:30pm 15.6 - - - 1027.9 - 0.0 - - - - - - -
21/06:00pm 16.1 - - - 1027.8 - 0.0 - - - - - - -
21/05:30pm 16.5 - - - 1027.4 - 0.0 - - - - - - -
21/05:00pm 16.6 - - - 1027.0 - 0.0 - - - - - - -
21/04:30pm 17.3 - - - 1026.8 - 0.0 - - - - - - -
21/04:00pm 17.0 - - - 1026.8 - 0.0 - - - - - - -
21/03:30pm 16.8 - - - 1026.8 - 0.0 - - - - - - -
21/03:00pm 17.2 - - - 1026.9 F 0.0 Haze Mostly cloudy 25 - - - -
21/02:30pm 17.4 - - - 1026.8 - 0.0 - - - - - - -
21/02:00pm 17.1 - - - 1026.9 - 0.0 - - - - - - -
21/01:30pm 16.4 - - - 1026.9 - 0.0 - - - - - - -
21/01:00pm 15.5 - - - 1027.4 - 0.0 - - - - - - -
21/12:30pm 15.8 - - - 1027.9 - 0.0 - - - - - - -
21/12:00pm 15.4 - - - 1028.4 F 0.0 Haze Mostly cloudy 20 - - - -
21/11:30am 14.1 - - - 1028.9 - 0.0 - - - - - - -
21/11:00am 13.0 - - - 1029.1 - 0.0 - - - - - - -
21/10:30am 12.2 - - - 1029.4 - 0.0 - - - - - - -
21/10:00am 11.4 - - - 1029.4 - 0.0 - - - - - - -
21/09:30am 10.3 - - - 1029.5 - 0.0 - - - - - - -
21/09:00am 9.8 - - - 1029.6 R 0.0 Haze Mostly cloudy 15 - - - -
21/08:30am 9.5 - - - 1029.3 - 0.0 - - - - - - -
21/08:00am 8.9 - - - 1029.0 - 0.0 - - - - - - -
21/07:30am 8.8 - - - 1028.8 - 0.0 - - - - - - -
21/07:00am 8.9 - - - 1028.0 - 0.0 - - - - - - -
21/06:30am 8.9 - - - 1028.2 - 0.0 - - - - - - -
21/06:00am 8.9 - - - 1028.1 - 0.0 - - - - - - -
21/05:30am 9.0 - - - 1027.8 - 0.0 - - - - - - -
21/05:00am 9.2 - - - 1027.7 - 0.0 - - - - - - -
21/04:30am 8.9 - - - 1027.6 - 0.0 - - - - - - -
21/04:00am 8.7 - - - 1027.7 - 0.0 - - - - - - -
21/03:30am 8.9 - - - 1027.5 - 0.0 - - - - - - -
21/03:00am 9.6 - - - 1027.6 - 0.0 - - - - - - -
21/02:30am 10.3 - - - 1027.5 - 0.0 - - - - - - -
21/02:00am 10.4 - - - 1027.6 - 0.0 - - - - - - -
21/01:30am 10.5 - - - 1027.5 - 0.0 - - - - - - -
21/01:00am 10.6 - - - 1027.6 - 0.0 - - - - - - -
21/12:30am 10.6 - - - 1027.7 - 0.0 - - - - - - -
21/12:00am 10.7 - - - 1027.7 - 0.0 - - - - - - -
 
Date/Time
EST
Temp

°C
Wind Pressure Rain
since 9am
mm
Weather Cloud Vis
km
Sea
Height
m
Swell
Dir
 
Speed
knots
Gust
knots
hPa Trend Height
m
Period
s
Dir
20/11:30pm 10.8 - - - 1027.8 - 0.0 - - - - - - -
20/11:00pm 10.9 - - - 1027.9 - 0.0 - - - - - - -
20/10:30pm 11.0 - - - 1028.0 - 0.0 - - - - - - -
20/10:00pm 11.0 - - - 1028.2 - 0.0 - - - - - - -
20/09:30pm 11.2 - - - 1028.2 - 0.0 - - - - - - -
20/09:00pm 11.4 - - - 1028.2 - 0.0 - - - - - - -
20/08:30pm 11.6 - - - 1027.9 - 0.0 - - - - - - -
20/08:00pm 11.8 - - - 1027.9 - 0.0 - - - - - - -
20/07:30pm 12.0 - - - 1027.9 - 0.0 - - - - - - -
20/07:00pm 11.9 - - - 1027.8 - 0.0 - - - - - - -
20/06:30pm 12.1 - - - 1027.7 - 0.0 - - - - - - -
20/06:00pm 12.3 - - - 1027.4 - 0.0 - - - - - - -
20/05:30pm 12.3 - - - 1027.0 - 0.0 - - - - - - -
20/05:00pm 12.5 - - - 1026.8 - 0.0 - - - - - - -
20/04:30pm 12.5 - - - 1026.6 - 0.0 - - - - - - -
20/04:00pm 12.7 - - - 1026.5 - 0.0 - - - - - - -

Other Formats:

Comma delimited format used in spreadsheet applications
http://www.bom.gov.au/fwo/IDV60701/IDV60701.94868.axf

JavaScript Object Notation format (JSON) in row-major order
http://www.bom.gov.au/fwo/IDV60701/IDV60701.94868.json